Weather Roundup
Issued by NWS Corpus Christi, TX

Home | Current Version | Previous Version | Text Only | Print | Product List | Glossary On
Versions: 1 2 3 4 5 6 7 8 9 10 11 12 13 14 15 16 17 18 19 20 21 22 23 24 25 26 27 28 29 30 31 32 33 34 35 36 37 38 39 40 41 42 43 44 45 46 47 48 49 50
691
ASUS44 KCRP 231210
HRRCRP

SOUTH TEXAS REGIONAL WEATHER ROUNDUP
NATIONAL WEATHER SERVICE CORPUS CHRISTI TX
600 AM CST THU FEB 23 2017


TXZ229>244-231300-
...CORPUS CHRISTI AREA OBSERVATIONS...

CITY           SKY/WX    TMP DP  RH WIND       PRES   REMARKS
CORPUS CHRISTI FOG       60  60 100 SE12      29.72S VSB 3/4
NAS CORPUS CHR PTCLDY    67  67 100 S12       29.72S
ROCKPORT       CLEAR     68  64  87 S7        29.73S
KINGSVILLE NAS   N/A     54  54 100 SE3       29.72R FOG
ALICE            N/A     46  46 100 S5        29.71S
ORANGE GROVE   FOG       51  51 100 S6        29.72S VSB 1/4
FALFURRIAS     MOCLDY   N/A N/A N/A SE5       29.71F VSB 1
$$

...VICTORIA AREA OBSERVATIONS...

CITY           SKY/WX    TMP DP  RH WIND       PRES   REMARKS
VICTORIA       FOG       56  55  97 SE7       29.74S VSB 1/2
BEEVILLE       FOG       53  53 100 SE5       29.72S VSB 3/4
PLEASANTON     LGT RAIN  47  44  87 CALM      29.72S
SAN ANTONIO    CLEAR     51  44  77 NW3       29.72S
$$

...LAREDO AREA OBSERVATIONS...

CITY           SKY/WX    TMP DP  RH WIND       PRES   REMARKS
LAREDO         CLEAR     64  40  41 SE13      29.68S
COTULLA        CLEAR     56  45  66 SE8       29.68S
DEL RIO        CLEAR     55  39  54 E8        29.66F
MCALLEN        CLEAR     56  48  74 SE7       29.72S
HEBBRONVILLE   CLEAR     51  38  61 CALM      29.71S
$$

...OTHER TEXAS OBSERVATIONS...

CITY           SKY/WX    TMP DP  RH WIND       PRES   REMARKS
BROWNSVILLE    FOG       59  58  96 S6        29.75R VSB 1/2
HOUSTON        CLEAR     52  51  97 CALM      29.76R
COL. STATION   CLEAR     56  52  86 S7        29.73S
AUSTIN         CLEAR     48  45  89 CALM      29.71S
WACO           CLEAR     53  49  86 S9        29.67S
FORT WORTH     CLEAR     55  48  77 S7        29.62S
WICHITA FALLS  CLEAR     46  41  82 N5        29.59S
LUBBOCK        PTCLDY    49  30  48 W9        29.66F
EL PASO        CLEAR     61  28  28 SW8       29.79S
$$

...MARINE OBSERVATIONS...

STATION/POSITION TIME  SKY/WX   TEMP    WIND        PRES    VSBY  WAVE   SWELL
                                AIR SEA DIR/SP/G                  HT/PER HT/PER
                 (UTC)          (F)     (DEG/KT/KT) (MB)    (MI)  (FT/S) (FT/S)
PORT ARANSAS     1100            69 69  160/ 14/ 16 1006.6F
BUOY 90 E PORT A 1150            71 69  180/ 16/ 17 1007.8R         2/ 4
BUOY 45 SE BAFFI 1150            74     160/ 16/ 17 1006.4S         2/ 4
BUOY 200 E PT IS 1150            71 74  150/  6/  8 1008.9R         2/ 5   2/ 5
BUOY 15 E GALVES 1150            65 65  160/  8/ 10 1007.9R         1/ 3
$$




USA.gov is the U.S. government's official web portal to all federal, state and local government web resources and services.